星链-3834 (STARLINK-3834 )

导读 | 星芒AI

STARLINK-3834 是 SpaceX Starlink 卫星互联网项目中的一颗低轨卫星,属于第 11 批组网卫星(Batch 11)。该卫星于 2021 年 11 月 19 日由猎鹰 9 号火箭成功送入近地轨道,主要任务是为全球提供高速、低延迟的宽带互联网服务。它运行在约 550 公里的高度,采用先进的相控阵天线和激光通信技术,以提升网络性能和稳定性。作为 Starlink 网络的一部分,STARLINK-3834 有助于扩大覆盖范围,特别是在偏远和网络基础设施薄弱的地区。

基本信息
目录编号:
52368
目录名称:
STARLINK-3834
国际标识:
2022-045AP
轨道中心:
EARTH
卫星名称:
星链-3834
卫星全名:
星链-3834 (STARLINK-3834 )
卫星状态:
在轨 (已飞行1332 天)
发射日期:
2022-04-29 UTC
国别 :
美国 (US)
星等 :
--
轨道信息
数据来源 国际轨道数据 AOE轨道数据
星历时间 2025-12-21T03:19:37+0800
8小时前
查看轨道信息
2025-12-14T18:00:00+0800
6天前
查看轨道信息
半长轴 6917.9km 6917.946km
偏心率 0.0001508 0.0001696
轨道倾角 53.216° 53.216°
近地点辐角 93.633° 89.333°
升交点赤经 183.246° 211.927°
平近点角 266.483° 109.987°
近地点 538.719km 538.637km
远地点 540.807km 540.985km
周期 95.438分钟 95.439分钟
每日圈数 15.088337 15.088186
详细信息
固有亮度:
5
最大亮度:
2.5
卫星平台:
Starlink v1.5
覆盖范围:
全球
运营商:
太空探索技术公司
运营商所在国:
美国
制造商(研发单位):
太空探索技术公司
制造商所在国:
美国
使用方式:
暂无
卫星简介
星链(Starlink)计划是由太空探索技术公司(SpaceX)提出的一个巨型低轨卫星互联网星座项目,计划在2019年至2024年间在太空搭建由约1.2万颗卫星组成的“星链”网络,其中1584颗将部署在地球上空550千米处的近地轨道,并从2020年开始工作。该卫星仍在工作。
2D轨道图
3D轨道图
轨道高度分析图
轨道倾角分析图
轨道综合分析图
查看轨道综合分析图